Satellite-Ground Cal/Val Site Overpasses Predictions

Prediction of Satellite NPP Overpassing Cal/Val Site: Antarctic Dome C

Ground Cal/Val Site Location: Latitude: -75.10, Longitude: 123.35; Satellite-Ground Site NADIR distance within 100 km.

Table of predicted overpasses for the next 14.0 days since TLE Epoch: 3/26/2016
Interval Starting Time Ending Time Minimum Distance Time Minimum Distance (km)
1 03/26/2016 14:49:28 03/26/2016 14:49:57 03/26/2016 14:49:42 19.34
2 03/28/2016 07:32:18 03/28/2016 07:32:47 03/28/2016 07:32:33 3.43
3 03/31/2016 14:55:47 03/31/2016 14:56:16 03/31/2016 14:56:01 17.60
4 04/01/2016 14:37:06 04/01/2016 14:37:18 04/01/2016 14:37:12 89.25
5 04/02/2016 07:38:38 04/02/2016 07:39:05 04/02/2016 07:38:51 35.23
6 04/03/2016 07:19:53 04/03/2016 07:20:12 04/03/2016 07:20:02 74.94
7 04/05/2016 15:02:08 04/05/2016 15:02:32 04/05/2016 15:02:20 54.91
8 04/06/2016 14:43:18 04/06/2016 14:43:43 04/06/2016 14:43:30 54.09
9 04/07/2016 07:44:59 04/07/2016 07:45:20 04/07/2016 07:45:10 70.82


NCC Satellite Cal/Val Overpasses Prediction Service
